Theta_e
329 333 336 338 338 339 339 340 340 340 339 340 341 340 341 342 344 345 345 343 342 341 339 339 339 339 340 340 339 339 339 339 340 339 340 341 339 338 339 339 339 340
325 330 334 336 337 337 338 339 340 341 339 339 341 341 340 340 341 343 344 344 342 340 339 338 339 340 340 340 341 340 340 340 340 340 341 342 340 339 340 339 340 340
322 325 331 335 336 337 338 338 339 340 340 340 342 342 342 341 341 342 343 344 343 340 339 339 340 340 340 340 341 341 341 340 340 341 342 342 341 340 341 340 340 340
321 322 327 332 335 336 337 337 338 339 339 340 341 342 342 342 342 342 342 343 343 341 339 339 340 341 341 341 340 341 341 341 340 341 342 342 342 342 342 342 341 340
321 321 324 328 333 335 336 336 337 338 339 340 340 341 341 341 340 341 341 341 341 340 340 339 340 341 341 341 341 341 341 341 340 341 341 341 342 343 343 343 342 341
321 321 323 326 330 334 335 336 336 337 338 339 339 340 341 340 339 340 339 339 340 340 340 340 340 341 341 341 341 341 341 341 340 341 341 341 341 342 342 343 342 343
320 321 322 325 328 332 335 335 336 337 337 338 339 340 340 340 339 339 338 338 339 340 340 340 340 341 341 340 340 341 341 341 340 341 341 341 340 341 341 342 342 342
320 321 322 324 327 331 333 335 335 336 337 338 339 340 341 341 340 339 339 338 339 339 339 340 340 340 341 340 339 340 341 341 341 341 341 341 340 341 341 342 342 342
320 320 321 323 325 329 332 334 334 335 337 338 339 340 341 342 341 339 338 338 338 339 338 340 340 340 340 341 340 340 341 341 342 341 342 341 341 341 341 342 342 342
319 320 321 322 324 327 330 332 334 335 337 337 338 339 340 341 341 339 337 337 338 338 337 338 340 341 340 340 340 340 340 341 341 341 341 342 341 341 340 341 342 342
318 319 320 321 323 326 329 331 332 334 336 337 338 338 337 339 341 339 337 337 338 338 336 336 340 341 340 339 339 340 341 341 341 341 341 342 341 341 340 340 341 341
317 319 320 321 322 325 328 330 331 333 335 336 337 338 337 339 340 338 337 337 337 337 335 334 338 340 340 338 338 339 341 341 341 340 340 341 341 341 340 340 341 340
317 318 320 321 321 323 327 330 330 332 334 335 336 337 338 339 338 336 336 337 337 336 334 332 335 340 341 339 337 337 338 340 341 340 340 340 341 341 340 340 340 340
316 318 319 320 321 321 325 329 330 331 334 335 335 337 338 337 336 334 334 336 338 335 332 331 334 339 340 338 336 334 335 338 340 340 339 340 340 340 340 340 340 340
315 317 319 320 321 321 323 327 330 331 333 334 335 337 337 335 334 332 331 335 338 335 331 332 335 339 340 338 335 333 334 338 340 339 338 340 340 340 340 340 340 340
315 317 318 320 321 320 322 326 328 329 332 333 334 335 335 334 333 331 329 333 336 333 331 335 338 338 339 338 337 334 334 336 338 338 337 338 340 341 340 340 341 341
315 316 318 319 320 321 323 325 327 329 332 333 333 334 334 334 333 329 328 333 335 331 331 337 339 338 338 337 337 336 335 336 337 337 336 336 339 341 341 340 341 341
316 316 318 319 320 320 323 325 327 330 330 329 332 334 333 333 333 329 329 334 336 332 332 337 339 337 336 336 336 336 336 336 336 335 335 337 340 341 339 339 341 341
316 317 318 319 320 321 323 325 327 328 327 326 331 334 332 331 331 331 332 336 337 335 335 337 339 337 335 335 336 336 335 336 335 336 338 340 342 341 338 338 340 341
316 317 318 319 319 321 324 326 326 326 325 326 330 333 332 330 330 332 335 337 337 337 336 337 339 338 336 335 336 335 335 335 336 337 340 341 341 340 339 338 339 341
317 318 318 319 320 322 326 326 324 325 326 328 330 332 332 332 331 333 336 337 336 337 337 337 338 338 337 336 335 335 335 335 335 336 339 340 340 340 340 338 338 341
317 318 319 319 321 323 325 325 324 326 328 329 329 330 330 331 333 333 335 336 336 337 337 337 338 337 336 336 335 335 334 334 334 335 336 339 338 338 339 337 337 339
318 319 319 320 322 323 325 326 325 327 329 329 329 329 330 332 333 333 333 335 336 336 336 337 337 336 335 335 335 335 334 333 333 333 335 336 337 337 337 336 337 340
319 320 320 321 324 325 326 327 328 329 330 329 329 332 334 334 333 333 334 335 335 336 336 336 337 335 334 334 335 335 335 333 332 332 333 335 336 337 336 335 337 340
320 321 321 322 324 325 326 327 327 328 329 329 330 332 334 334 333 333 333 333 334 336 336 335 337 337 335 335 335 334 334 333 332 333 334 335 336 337 336 336 337 339
321 321 322 323 323 323 324 324 323 323 325 328 331 332 331 333 333 332 331 332 334 337 336 335 336 338 337 335 335 334 334 333 333 334 335 335 337 337 337 337 338 339
Wind_Speed
18 19 22 24 26 27 28 27 25 24 25 24 22 22 22 21 22 22 23 25 25 26 26 25 21 19 17 17 19 19 18 18 18 18 18 19 19 19 20 20 18 17
18 19 20 22 24 26 27 27 26 25 27 26 23 22 21 20 21 21 21 23 24 26 26 26 23 21 19 18 20 20 19 18 18 18 18 19 19 19 20 21 20 18
18 20 21 22 24 25 25 27 27 27 28 27 24 22 20 19 19 20 22 23 25 28 30 30 28 25 24 22 21 21 21 20 19 18 19 19 19 19 20 20 20 20
18 20 22 23 24 25 25 26 27 28 28 28 27 24 21 20 18 19 22 23 26 28 31 32 29 26 26 25 24 22 21 21 20 20 20 20 20 20 20 20 20 20
17 19 22 24 25 25 26 27 28 28 28 29 28 26 23 22 20 20 21 23 25 26 27 30 30 28 28 27 26 24 23 21 21 21 22 22 21 21 21 20 20 21
18 19 21 23 25 26 27 29 29 29 29 29 29 27 25 24 23 21 20 21 24 25 26 28 30 31 31 30 27 25 24 22 21 22 24 23 22 22 22 21 21 21
20 20 21 22 24 27 29 29 29 29 29 29 29 28 26 24 24 23 21 20 21 24 25 26 29 31 30 31 29 26 24 24 23 24 25 24 23 24 24 23 22 22
21 21 22 23 24 26 29 30 30 29 30 29 29 28 27 25 25 23 22 21 21 23 25 26 29 30 28 29 29 27 25 24 25 26 26 25 24 24 25 24 23 23
21 21 22 23 24 26 29 31 31 30 30 31 30 28 27 26 25 24 22 22 22 22 24 26 27 29 29 29 28 27 26 25 25 26 27 26 26 26 26 25 23 23
23 23 22 24 25 26 28 31 32 31 31 32 31 29 28 26 24 25 24 22 22 22 23 25 26 27 31 32 31 28 28 27 27 27 27 26 26 26 26 26 25 24
25 24 24 25 26 27 28 30 31 31 31 32 31 30 30 27 24 24 24 23 24 23 23 25 26 28 31 32 31 29 28 28 28 28 28 27 26 27 27 26 25 25
27 25 25 26 26 27 27 28 30 31 31 32 30 30 30 28 25 25 25 24 24 24 23 24 25 29 33 33 31 29 28 28 28 28 28 27 27 26 27 27 26 26
28 26 26 25 26 27 27 28 30 31 32 32 30 29 29 27 26 26 26 24 24 24 24 24 24 26 31 35 35 33 30 28 27 28 28 27 26 26 26 27 26 27
28 26 26 25 25 26 27 29 31 31 33 33 31 30 29 27 28 29 27 25 23 23 23 24 24 24 27 32 33 32 34 33 29 27 27 26 25 24 25 26 26 26
29 26 26 25 25 26 27 29 31 33 33 33 31 29 28 28 29 31 30 27 23 22 22 23 24 25 28 32 32 31 33 32 29 28 27 24 23 22 23 25 25 25
29 27 26 25 25 26 28 28 31 32 33 33 32 30 28 27 28 31 31 26 22 21 22 21 23 26 29 32 34 34 29 22 19 21 20 19 19 19 21 24 24 24
29 27 26 25 25 26 27 28 29 30 31 32 32 30 28 26 26 29 30 25 21 21 22 20 20 23 28 31 33 34 30 22 18 18 18 19 20 19 21 23 24 24
28 26 26 25 25 27 27 27 28 29 30 32 30 26 25 25 25 28 29 23 19 20 21 19 18 21 26 30 32 32 30 28 27 25 24 25 23 22 25 25 24 24
27 25 26 25 25 26 26 25 25 28 33 33 27 23 23 24 25 26 25 21 18 19 19 19 18 20 23 27 31 33 30 31 32 28 25 25 24 25 29 28 24 23
25 24 25 24 24 25 24 23 25 29 34 33 26 22 23 25 26 24 20 18 18 18 18 19 19 20 24 26 28 32 32 32 33 29 24 24 25 26 29 29 25 23
24 25 24 23 24 24 22 23 27 29 30 29 25 23 24 24 25 23 19 18 19 18 18 19 18 20 24 25 25 28 31 32 33 33 28 23 25 28 28 28 26 24
23 23 22 22 23 23 21 24 28 28 25 25 24 24 26 25 23 22 20 20 20 19 19 18 17 19 24 25 24 26 29 31 33 36 33 25 25 29 28 27 29 27
23 22 23 22 22 23 24 25 28 27 25 26 26 27 27 24 22 23 23 22 21 20 19 18 18 20 24 26 26 26 29 32 31 31 30 27 27 30 28 28 31 29
22 23 24 24 23 25 25 25 27 27 25 26 27 27 25 24 23 24 23 23 23 22 22 20 20 22 25 28 29 28 29 31 27 24 25 26 27 30 31 31 32 30
21 20 18 19 19 18 18 17 18 21 25 27 26 25 24 23 24 24 23 24 25 24 25 24 21 21 25 28 28 28 29 28 24 22 23 25 25 28 31 33 32 29
5 3 1 2 3 3 7 7 7 11 14 19 24 26 25 24 24 24 24 26 26 24 26 26 22 20 23 26 27 27 28 27 23 22 24 24 24 25 28 31 30 28
Wind_Direction
250 249 249 241 232 229 228 229 231 231 235 237 234 232 232 230 226 217 213 213 214 217 219 218 215 211 213 214 213 216 219 216 212 209 206 203 201 199 200 204 207 208
249 246 247 246 240 235 232 231 231 229 231 235 235 233 233 234 233 225 216 210 211 216 217 217 216 211 209 211 211 212 216 216 213 212 208 204 204 204 202 204 205 208
246 245 244 243 240 239 237 234 233 231 230 231 231 231 232 235 235 230 223 213 211 216 215 211 211 207 205 207 208 209 211 213 212 213 212 209 208 208 205 204 206 209
243 242 241 240 238 238 239 237 235 234 232 231 230 230 231 234 236 235 231 221 214 215 214 212 212 208 204 202 203 206 208 209 211 213 215 214 211 209 206 204 205 210
244 240 237 238 236 234 234 235 235 234 235 233 231 229 228 231 236 238 235 228 222 217 213 214 215 213 209 204 200 203 206 207 208 211 215 215 212 210 208 205 205 208
245 241 237 235 233 231 230 230 232 233 234 233 230 229 226 226 231 235 234 231 228 223 218 216 215 213 211 210 205 202 205 206 206 209 214 215 214 213 212 209 207 207
244 241 238 236 232 230 228 228 229 229 231 231 229 228 225 221 222 227 230 229 228 226 223 219 216 214 212 214 213 207 204 206 207 210 214 216 216 214 213 212 210 209
245 241 238 235 232 229 227 227 227 227 228 227 226 224 221 218 217 219 222 224 226 227 226 221 218 216 213 212 216 214 208 206 207 209 212 213 215 214 212 212 212 212
245 241 237 234 232 229 227 226 226 227 227 225 222 219 216 215 215 216 218 221 223 224 226 225 220 218 217 213 214 215 213 210 208 209 210 209 212 214 212 211 211 212
247 242 237 234 231 229 228 226 224 225 226 224 221 216 214 214 213 215 218 220 222 222 224 225 221 218 219 218 217 215 213 213 211 210 210 208 210 214 213 212 211 212
247 242 237 233 231 230 229 227 224 224 225 224 220 215 215 215 209 210 216 218 221 222 223 224 221 217 218 219 221 218 214 213 214 212 210 210 211 214 213 213 213 212
246 242 237 233 232 231 230 227 225 223 223 222 219 214 213 212 207 208 214 216 219 222 223 225 222 218 217 218 219 220 218 215 215 214 213 212 212 214 214 214 214 213
245 243 238 234 231 231 230 228 225 223 222 220 218 214 212 209 206 209 215 216 217 220 223 226 225 219 217 217 218 220 221 218 216 216 215 213 213 214 214 214 215 215
244 244 240 235 231 229 230 229 224 221 221 218 215 213 211 209 206 210 217 217 216 219 223 227 227 218 212 215 220 224 227 223 215 213 213 211 212 213 214 215 215 215
241 242 239 235 231 228 229 229 225 221 219 216 214 211 209 208 206 209 217 217 213 218 224 226 228 222 214 214 216 223 234 231 218 212 212 211 211 213 214 215 214 213
237 237 236 232 229 227 226 228 226 222 218 214 212 210 207 206 204 208 216 216 210 218 225 223 225 225 223 220 216 219 234 241 226 217 217 217 218 217 216 216 215 213
233 232 232 228 227 226 224 225 225 220 216 213 211 209 206 203 201 206 216 216 208 217 225 221 219 223 225 226 223 222 227 230 223 220 221 223 225 223 221 218 215 214
230 227 228 225 224 224 222 222 221 215 214 215 211 206 203 201 199 204 211 212 207 215 223 219 216 223 228 229 227 225 224 221 219 219 216 216 217 220 223 221 215 212
227 224 225 222 221 222 219 220 217 210 211 215 212 203 200 202 205 207 206 203 204 211 217 215 214 223 231 231 226 223 220 216 215 215 213 212 211 215 222 223 216 210
222 221 222 220 220 218 214 215 217 210 207 211 211 204 201 202 208 211 203 198 204 208 210 213 215 222 232 235 230 224 218 214 213 214 218 217 212 213 220 223 219 212
217 218 218 216 217 215 205 205 214 213 205 203 204 204 204 204 207 209 204 201 206 205 206 212 215 221 231 237 235 227 220 218 220 222 224 223 216 214 219 224 224 218
214 213 214 213 211 209 202 199 208 213 205 197 199 204 207 205 204 206 205 204 205 204 204 209 213 220 229 235 238 232 223 220 223 225 226 227 225 222 222 227 229 225
213 207 207 210 205 203 202 197 201 209 206 198 198 202 204 201 199 203 205 203 203 202 201 206 213 219 226 232 235 234 225 220 219 222 225 227 228 227 225 227 230 226
216 209 205 207 203 199 201 199 198 203 204 201 202 201 198 195 196 201 203 201 199 196 195 202 210 216 222 228 231 230 226 221 216 215 219 223 225 226 225 227 230 227
218 216 209 211 209 203 202 202 204 208 205 202 205 203 196 194 195 197 200 202 199 193 194 200 206 213 220 225 226 226 224 220 215 211 215 219 222 224 224 227 230 228
207 234 281 281 295 268 235 236 266 271 243 219 212 206 197 194 195 195 199 203 198 190 193 201 205 209 218 223 224 223 222 219 215 214 214 215 218 221 223 226 229 229